Francistown, Botswana

7:22 AM CAT on January 23, 2017 (GMT +0200)
Francistown

Weather History for 68054 - November, 2013

Change the Weather History Date:

Saturday, November 16, 2013

  Actual Average Record
Temperature  
Mean Temperature 86 °F -  
Max Temperature 100 °F 85 °F - ()
Min Temperature 71 °F 65 °F - ()
Cooling Degree Days 20    
Growing Degree Days 36 (Base 50)    
Moisture  
Dew Point 48 °F    
Average Humidity 23    
Maximum Humidity 41    
Minimum Humidity 10    
Precipitation  
Precipitation 0.00 in - - ()
Sea Level Pressure  
Sea Level Pressure 29.92 in    
Wind  
Wind Speed 8 mph ()    
Max Wind Speed 25 mph    
Max Gust Speed -    
Visibility 6.1 miles    
Events      
T = Trace of Precipitation, MM = Missing Value Source: Averaged Metar Reports

Daily Weather History Graph

Daily Weather History Graph

Search for Another Location

Airport or City:

Trip Planner

Search our weather history database for the weather conditions in past years. The results will help you decide how hot, cold, wet, or windy it might be!

Date:

Astronomy

Nov. 16, 2013 Rise Set
Actual Time 5:20 AM CAT 6:29 PM CAT
Civil Twilight 4:56 AM CAT 6:53 PM CAT
Nautical Twilight 4:28 AM CAT 7:21 PM CAT
Astronomical Twilight 3:59 AM CAT 7:50 PM CAT
Moon 5:34 PM CAT (11/16) 4:21 AM CAT (11/16)
Length of Visible Light 13h 56m
Length of Day
13h 08m
Waxing Gibbous, 99% of the Moon is Illuminated
Nov 16
Waxing Gibbous
Nov 17
Full
Nov 25
Last Quarter
Dec 3
New
Dec 9
First Quarter

Hourly Weather History & Observations

Time (CAT) Temp. Heat Index Dew Point Humidity Pressure Visibility Wind Dir Wind Speed Gust Speed Precip Events Conditions
12:00 AM 84.2 °F - 44.6 °F 25% 29.95 in - East 4.6 mph - N/A   Clear
1:00 AM 82.4 °F - 46.4 °F 28% 29.92 in - ESE 4.6 mph - N/A   Clear
2:00 AM 82 °F - 40 °F 13%  in 6 mi East 11.5 mph - -   Partly Cloudy
2:00 AM 82.4 °F - 39.2 °F 21% 29.92 in - East 11.5 mph - N/A   Clear
3:00 AM 80.6 °F - 41.0 °F 24% 29.92 in - ESE 8.1 mph - N/A   Clear
4:00 AM 77.0 °F - 48.2 °F 36% 29.92 in - SSE 4.6 mph - N/A   Clear
5:00 AM 72 °F - 46 °F 28%  in 6 mi SE 8.1 mph - -   Partly Cloudy
5:00 AM 71.6 °F - 46.4 °F 41% 29.92 in - SE 8.1 mph - N/A   Clear
6:00 AM 75.2 °F - 44.6 °F 34% 29.95 in - East 6.9 mph - N/A   Clear
7:00 AM 80.6 °F - 46.4 °F 30% 29.95 in - ENE 6.9 mph - N/A   Clear
8:00 AM 88 °F - 47 °F 15%  in 6 mi NE 9.2 mph - -  
8:00 AM 87.8 °F - 46.4 °F 24% 29.95 in - NE 9.2 mph - N/A   Clear
9:00 AM 95.0 °F - 48.2 °F 20% 29.95 in - North 25.3 mph - N/A   Clear
10:00 AM 96.8 °F - 46.4 °F 18% 29.95 in - NNW 18.4 mph - N/A   Clear
11:00 AM 98 °F - 46 °F 10%  in 6 mi NNW 17.3 mph - -   Scattered Clouds
11:00 AM 98.6 °F - 46.4 °F 17% 29.95 in - NNW 17.3 mph - N/A   Clear
12:00 PM 98.6 °F - 48.2 °F 18% 29.95 in 6.2 mi NNW 18.4 mph - N/A   Partly Cloudy
1:00 PM 100.4 °F - 50.0 °F 18% 29.89 in 6.2 mi NNW 8.1 mph - N/A   Scattered Clouds
2:00 PM 100 °F - 60 °F 18%  in 6 mi North 15.0 mph - -   Partly Cloudy
2:00 PM 100.4 °F 101.3 °F 60.8 °F 27% 29.89 in 6.2 mi North 15.0 mph - N/A   Mostly Cloudy
4:00 PM 98.6 °F - 50.0 °F 19% 29.86 in 6.2 mi North 10.4 mph - N/A   Mostly Cloudy
5:00 PM 99 °F - 49 °F 11%  in 6 mi NNW 9.2 mph - -   Partly Cloudy
5:00 PM 98.6 °F - 50.0 °F 19% 29.86 in 6.2 mi NNW 9.2 mph - N/A   Mostly Cloudy
6:00 PM 98.6 °F - 50.0 °F 19% 29.86 in 6.2 mi NW 5.8 mph - N/A   Mostly Cloudy
7:00 PM 95.0 °F - 51.8 °F 23% 29.89 in 6.2 mi NW 5.8 mph - N/A   Mostly Cloudy
9:00 PM 89.6 °F - 48.2 °F 24% 29.92 in 6.2 mi NW 5.8 mph - N/A   Scattered Clouds
11:00 PM 80.6 °F - 51.8 °F 37% 29.95 in 6.2 mi SE 5.8 mph - N/A   Scattered Clouds